CW9181 Weather Reports


time (UTC)temp
F
wind
direction
speed
knots
gust
knots
rain 1hr
in
rain 24hr
in
rain mn
in
humidity
%
barometer
mb
20260510134028 56 110 5.2 7.8 0.00 0.00 0.00 85 1013.3
20260510133030 56 154 3.5 6.1 0.00 0.00 0.00 85 1013.2
20260510132053 56 212 4.3 8.7 0.00 0.00 0.00 85 1013.2
20260510131031 56 130 1.7 7.8 0.00 0.00 0.00 85 1012.8
20260510130033 57 155 2.6 6.1 0.00 0.00 0.00 85 1012.8
20260510125032 57 146 3.5 6.1 0.00 0.00 0.00 85 1012.9
20260510124031 57 185 2.6 6.1 0.00 0.00 0.00 85 1012.8
20260510123015 57 169 1.7 4.3 0.00 0.00 0.00 84 1012.8
20260510122016 57 168 2.6 7.8 0.00 0.00 0.00 84 1012.8
20260510121055 57 157 2.6 7.0 0.00 0.00 0.00 84 1012.8
20260510120055 57 185 2.6 7.0 0.00 0.00 0.00 84 1012.8
20260510115033 57 208 2.6 5.2 0.00 0.00 0.00 83 1012.8
20260510114032 57 146 3.5 7.0 0.00 0.00 0.00 83 1012.8
20260510113035 58 149 2.6 7.0 0.00 0.00 0.00 83 1012.7
20260510112055 58 186 2.6 7.0 0.00 0.00 0.00 83 1012.6
20260510111015 58 135 3.5 6.1 0.00 0.00 0.00 82 1012.5
20260510110033 58 179 2.6 5.2 0.00 0.00 0.00 82 1012.5
20260510105016 58 186 4.3 8.7 0.00 0.00 0.00 82 1012.5
20260510104035 58 130 3.5 7.8 0.00 0.00 0.00 82 1012.5
20260510103036 59 153 3.5 7.8 0.00 0.00 0.00 81 1012.6
20260510102035 59 168 2.6 7.0 0.00 0.00 0.00 81 1012.5
20260510101027 59 184 3.5 8.7 0.00 0.00 0.00 80 1012.5
20260510100028 59 184 2.6 8.7 0.00 0.00 0.00 80 1012.3
20260510095016 60 146 3.5 7.0 0.00 0.00 0.00 80 1012.4
20260510094032 60 137 3.5 7.0 0.00 0.00 0.00 79 1012.3
20260510093017 60 157 3.5 7.8 0.00 0.00 0.00 78 1012.3
20260510092020 61 164 3.5 7.8 0.00 0.00 0.00 77 1012.3
20260510091036 61 200 4.3 8.7 0.00 0.00 0.00 76 1012.2
20260510090016 62 164 3.5 7.8 0.00 0.00 0.00 75 1012.1
20260510085019 62 192 3.5 7.8 0.00 0.00 0.00 74 1012.2
20260510084021 63 171 2.6 7.0 0.00 0.00 0.00 74 1012.2
20260510083022 63 147 2.6 7.8 0.00 0.00 0.00 73 1012.1
20260510082026 63 167 2.6 7.8 0.00 0.00 0.00 73 1012.0
20260510081030 63 162 1.7 5.2 0.00 0.00 0.00 73 1012.1
20260510080031 64 172 1.7 5.2 0.00 0.00 0.00 72 1012.1
20260510075055 64 142 1.7 4.3 0.00 0.00 0.00 72 1011.9
20260510074018 64 118 1.7 5.2 0.00 0.00 0.00 72 1012.0
20260510073041 64 143 2.6 7.8 0.00 0.00 0.00 71 1012.1
20260510072045 65 130 3.5 7.0 0.00 0.00 0.00 71 1012.3
20260510071028 65 161 2.6 7.8 0.00 0.00 0.00 71 1012.2
20260510070033 65 154 2.6 5.2 0.00 0.00 0.00 71 1012.2
20260510065032 66 133 3.5 7.0 0.00 0.00 0.00 70 1012.2
20260510064025 66 172 1.7 7.0 0.00 0.00 0.00 70 1012.2
20260510063036 67 180 2.6 9.6 0.00 0.00 0.00 69 1012.2
20260510062031 67 146 5.2 8.7 0.00 0.00 0.00 69 1012.3
20260510061027 68 115 1.7 7.0 0.00 0.00 0.00 68 1012.1
20260510060025 68 188 3.5 7.0 0.00 0.00 0.00 68 1012.0
20260510055022 69 128 3.5 7.8 0.00 0.00 0.00 67 1012.0
20260510054022 69 113 3.5 7.0 0.00 0.00 0.00 67 1012.0
20260510053017 70 141 3.5 7.0 0.00 0.00 0.00 66 1012.1
20260510052032 70 169 3.5 5.2 0.00 0.00 0.00 65 1012.0
20260510051050 70 177 2.6 6.1 0.00 0.00 0.00 64 1011.9
20260510050041 71 155 2.6 7.8 0.00 0.00 0.00 62 1011.8
20260510045036 72 197 3.5 5.2 0.00 0.00 0.00 62 1011.8
20260510044034 72 147 3.5 6.1 0.00 0.00 0.00 62 1011.7
20260510043048 73 176 2.6 5.2 0.00 0.00 0.00 62 1011.7
20260510042026 74 165 2.6 5.2 0.00 0.00 0.00 62 1011.5
20260510041024 75 172 2.6 4.3 0.00 0.00 0.00 62 1011.3
20260510040031 75 186 1.7 5.2 0.00 0.00 0.00 60 1011.1
20260510035028 76 207 2.6 8.7 0.00 0.00 0.00 59 1011.1
20260510034024 77 182 1.7 7.0 0.00 0.00 0.00 59 1011.0
20260510033021 78 212 3.5 5.2 0.00 0.00 0.00 58 1010.8
20260510032021 78 172 1.7 5.2 0.00 0.00 0.00 57 1010.7
20260510031015 79 196 1.7 4.3 0.00 0.00 0.00 56 1010.7
20260510030033 80 180 0.9 5.2 0.00 0.00 0.00 54 1010.6
20260510025049 81 168 1.7 7.8 0.00 0.00 0.00 53 1010.5
20260510024037 82 223 1.7 7.0 0.00 0.00 0.00 51 1010.6
20260510023049 83 157 3.5 9.6 0.00 0.00 0.00 50 1010.4
20260510022022 84 200 2.6 8.7 0.00 0.00 0.00 48 1010.3
20260510021016 85 254 4.3 8.7 0.00 0.00 0.00 47 1010.3
20260510020052 86 209 3.5 10.4 0.00 0.00 0.00 46 1010.3
20260510015030 88 180 3.5 7.0 0.00 0.00 0.00 43 1010.4
20260510014028 89 265 2.6 7.8 0.00 0.00 0.00 34 1010.2
20260510013025 90 278 2.6 5.2 0.00 0.00 0.00 30 1010.1
20260510012047 90 254 2.6 5.2 0.00 0.00 0.00 31 1010.2
20260510011021 90 265 0.9 4.3 0.00 0.00 0.00 31 1010.3
20260510010045 90 335 1.7 4.3 0.00 0.00 0.00 31 1010.2
20260510005026 91 255 2.6 5.2 0.00 0.00 0.00 31 1010.3
20260510004036 90 265 1.7 3.5 0.00 0.00 0.00 32 1010.4
20260510003035 90 105 0.9 5.2 0.00 0.00 0.00 32 1010.4
20260510002033 90 270 2.6 5.2 0.00 0.00 0.00 33 1010.5
20260510001029 90 265 3.5 7.8 0.00 0.00 0.00 35 1010.6
20260510000029 90 303 0.9 5.2 0.00 0.00 0.00 35 1010.6
20260509235031 90 270 1.7 4.3 0.00 0.00 0.00 33 1010.7
20260509234027 90 230 2.6 4.3 0.00 0.00 0.00 35 1010.9
20260509233021 90 254 2.6 7.0 0.00 0.00 0.00 37 1011.0
20260509232019 90 332 2.6 5.2 0.00 0.00 0.00 35 1011.0
20260509231018 89 24 3.5 7.0 0.00 0.00 0.00 37 1011.0
20260509230036 89 298 2.6 7.8 0.00 0.00 0.00 35 1011.1
20260509225036 89 287 2.6 7.0 0.00 0.00 0.00 38 1011.3
20260509224018 89 6 2.6 4.3 0.00 0.00 0.00 39 1011.2
20260509223032 88 253 1.7 5.2 0.00 0.00 0.00 40 1011.4
20260509222035 87 265 6.1 9.6 0.00 0.00 0.00 41 1011.8
20260509221030 87 234 1.7 7.8 0.00 0.00 0.00 41 1011.9
20260509220025 87 277 1.7 7.0 0.00 0.00 0.00 43 1011.8
20260509215043 86 247 2.6 7.0 0.00 0.00 0.00 44 1012.1
20260509214040 86 256 0.9 7.8 0.00 0.00 0.00 46 1012.1
20260509213036 85 162 5.2 8.7 0.00 0.00 0.00 46 1012.3
20260509212056 84 4 2.6 7.0 0.00 0.00 0.00 47 1012.3
20260509211048 84 228 1.7 6.1 0.00 0.00 0.00 49 1012.4
20260509210047 83 167 3.5 7.0 0.00 0.00 0.00 49 1012.6
20260509205028 83 329 2.6 7.8 0.00 0.00 0.00 49 1012.6
20260509204023 83 235 1.7 4.3 0.00 0.00 0.00 49 1012.8
20260509203025 83 87 0.9 6.1 0.00 0.00 0.00 50 1012.7
20260509202022 82 246 3.5 7.0 0.00 0.00 0.00 50 1013.0
20260509201057 82 265 2.6 7.0 0.00 0.00 0.00 51 1013.0
20260509200036 82 114 1.7 6.1 0.00 0.00 0.00 54 1013.1
20260509195056 81 126 1.7 6.1 0.00 0.00 0.00 52 1013.1
20260509194028 81 93 4.3 6.1 0.00 0.00 0.00 53 1013.3
20260509193029 81 99 1.7 4.3 0.00 0.00 0.00 51 1013.4
20260509192029 80 189 1.7 6.1 0.00 0.00 0.00 53 1013.5
20260509191026 79 289 2.6 4.3 0.00 0.00 0.00 55 1013.7
20260509190023 80 178 2.6 6.1 0.00 0.00 0.00 54 1013.9
20260509185024 79 100 2.6 6.1 0.00 0.00 0.00 53 1014.0
20260509184019 78 180 2.6 6.1 0.00 0.00 0.00 55 1014.1
20260509183023 78 126 0.9 6.1 0.00 0.00 0.00 55 1014.2
20260509182022 77 80 2.6 6.1 0.00 0.00 0.00 56 1014.3
20260509181025 76 165 3.5 7.0 0.00 0.00 0.00 57 1014.5
20260509180022 76 178 0.9 6.1 0.00 0.00 0.00 59 1014.3
20260509175021 76 200 1.7 3.5 0.00 0.00 0.00 58 1014.4
20260509174017 75 228 1.7 6.1 0.00 0.00 0.00 59 1014.3
20260509173033 74 134 1.7 4.3 0.00 0.00 0.00 60 1014.3
20260509172032 73 137 2.6 5.2 0.00 0.00 0.00 60 1014.6
20260509171030 73 220 1.7 4.3 0.00 0.00 0.00 62 1014.6
20260509170046 73 176 1.7 5.2 0.00 0.00 0.00 63 1014.6
20260509165022 71 157 1.7 6.1 0.00 0.00 0.00 63 1014.5
20260509164019 71 165 1.7 5.2 0.00 0.00 0.00 64 1014.5
20260509163031 70 235 1.7 3.5 0.00 0.00 0.00 64 1014.5
20260509162029 69 227 0.9 3.5 0.00 0.00 0.00 67 1014.5
20260509161030 68 106 3.5 4.3 0.00 0.00 0.00 66 1014.6
20260509160030 68 165 1.7 6.1 0.00 0.00 0.00 67 1014.7
20260509155032 67 118 1.7 5.2 0.00 0.00 0.00 69 1014.6
20260509154028 66 173 2.6 5.2 0.00 0.00 0.00 71 1014.5
20260509153044 65 178 2.6 7.0 0.00 0.00 0.00 72 1014.5
20260509152026 64 103 1.7 6.1 0.00 0.00 0.00 73 1014.6
20260509151048 63 126 3.5 6.1 0.00 0.00 0.00 74 1014.5
20260509150025 62 139 3.5 7.0 0.00 0.00 0.00 75 1014.5
20260509145049 62 101 3.5 6.1 0.00 0.00 0.00 76 1014.6
20260509144033 61 158 3.5 5.2 0.00 0.00 0.00 78 1014.7
20260509143031 60 118 2.6 4.3 0.00 0.00 0.00 79 1014.7
20260509142034 59 149 3.5 7.8 0.00 0.00 0.00 82 1014.6
20260509141033 58 163 1.7 5.2 0.00 0.00 0.00 84 1014.5
20260509140033 57 127 2.6 5.2 0.00 0.00 0.00 85 1014.4
20260509135034 57 118 0.9 2.6 0.00 0.00 0.00 86 1014.3